Вернуться в каталог

HULIANWANG DIGUI-125

АктивенСвязьLEO
NORAD 67065·PAYLOAD·🇨🇳 China

Запущен Dec 11, 2025 с Wenchang Space Launch Site

Loading…

Ближайшие Пролёты (ближайшие 24 часа)

TLE

СвежийSource: Space-Track

Эпоха: Sep 14, 2026, 11:52 UTC

1 67065U 25295G   26257.49466632 -.00000117  00000-0  14399-4 0  9999
2 67065  49.9988  64.9193 0000817  60.5282 299.5671 13.29325885 37380

Отслеживайте HULIANWANG DIGUI-125 в реальном времени с AllMySat

Download on the App Store